Hourly Weather Rudki

Today, 11 April, Sunday

Time Temperature Precipitation Wind Pressure Humidity
00:00 +5°C° 0 mm 2 mps 756 mmHg 95%
01:00 +5°C° 0 mm 2 mps 756 mmHg 96%
02:00 +5°C° 0 mm 2 mps 755 mmHg 96%
03:00 +5°C° 0 mm 2 mps 755 mmHg 96%
04:00 +4°C° 0 mm 3 mps 755 mmHg 96%
05:00 +5°C° 0 mm 3 mps 755 mmHg 94%
06:00 +5°C° 0 mm 3 mps 755 mmHg 92%
07:00 +6°C° 0 mm 4 mps 754 mmHg 90%
08:00 +8°C° 0 mm 4 mps 754 mmHg 82%
09:00 +10°C° 0 mm 5 mps 754 mmHg 75%
10:00 +13°C° 0 mm 5 mps 754 mmHg 67%
11:00 +14°C° 0 mm 5 mps 753 mmHg 62%
12:00 +15°C° 0 mm 5 mps 753 mmHg 56%
13:00 +17°C° 0 mm 5 mps 753 mmHg 51%
14:00 +16°C° 0 mm 6 mps 753 mmHg 52%
15:00 +16°C° 0 mm 6 mps 753 mmHg 53%
16:00 +16°C° 0 mm 6 mps 752 mmHg 54%
17:00 +15°C° 0 mm 6 mps 753 mmHg 57%
18:00 +13°C° 0 mm 6 mps 753 mmHg 60%
19:00 +11°C° 0 mm 6 mps 753 mmHg 63%
20:00 +10°C° 0 mm 5 mps 753 mmHg 66%
21:00 +10°C° 0 mm 5 mps 753 mmHg 69%
22:00 +9°C° 0 mm 5 mps 753 mmHg 72%
23:00 +9°C° 0 mm 5 mps 753 mmHg 74%

Tomorrow, 12 April, Monday

Time Temperature Precipitation Wind Pressure Humidity
00:00 +9°C° 0 mm 5 mps 753 mmHg 76%
01:00 +9°C° 0 mm 5 mps 753 mmHg 78%
02:00 +8°C° 0 mm 4 mps 753 mmHg 81%
03:00 +8°C° 0 mm 4 mps 753 mmHg 84%
04:00 +8°C° 0 mm 3 mps 753 mmHg 88%
05:00 +9°C° 0 mm 3 mps 753 mmHg 85%
06:00 +9°C° 0 mm 3 mps 753 mmHg 83%
07:00 +10°C° 0 mm 3 mps 753 mmHg 80%
08:00 +10°C° 0 mm 3 mps 754 mmHg 78%
09:00 +10°C° 0 mm 3 mps 754 mmHg 76%
10:00 +10°C° 0 mm 3 mps 755 mmHg 74%
11:00 +8°C° 0 mm 4 mps 755 mmHg 76%
12:00 +7°C° 0 mm 4 mps 755 mmHg 78%
13:00 +6°C° 0 mm 5 mps 756 mmHg 79%
14:00 +6°C° 0.4 mm 5 mps 756 mmHg 81%
15:00 +5°C° 0.4 mm 5 mps 756 mmHg 83%
16:00 +3°C° 0.4 mm 5 mps 757 mmHg 85%
17:00 +2°C° 0.3 mm 5 mps 757 mmHg 87%
18:00 +2°C° 0.3 mm 5 mps 758 mmHg 90%
19:00 +1°C° 0.3 mm 5 mps 759 mmHg 93%
20:00 +1°C° 0.3 mm 4 mps 759 mmHg 91%
21:00 +1°C° 0.3 mm 4 mps 759 mmHg 90%
22:00 +2°C° 0.3 mm 3 mps 760 mmHg 89%
23:00 +2°C° 0 mm 3 mps 760 mmHg 89%

Day after tomorrow, 13 April, Tuesday

Time Temperature Precipitation Wind Pressure Humidity
00:00 +1°C° 0 mm 3 mps 760 mmHg 88%
01:00 +2°C° 0 mm 2 mps 760 mmHg 87%
02:00 +2°C° 0 mm 2 mps 760 mmHg 86%
03:00 +2°C° 0 mm 2 mps 760 mmHg 85%
04:00 +2°C° 0 mm 2 mps 760 mmHg 84%
05:00 +3°C° 0 mm 2 mps 760 mmHg 82%
06:00 +2°C° 0 mm 3 mps 761 mmHg 81%
07:00 +2°C° 0 mm 3 mps 761 mmHg 79%
08:00 +3°C° 0 mm 3 mps 761 mmHg 71%
09:00 +4°C° 0 mm 3 mps 761 mmHg 63%
10:00 +7°C° 0 mm 3 mps 761 mmHg 55%
11:00 +7°C° 0 mm 3 mps 761 mmHg 49%
12:00 +8°C° 0 mm 3 mps 761 mmHg 43%
13:00 +9°C° 0 mm 3 mps 761 mmHg 38%
14:00 +9°C° 0 mm 3 mps 761 mmHg 37%
15:00 +9°C° 0 mm 3 mps 760 mmHg 36%
16:00 +9°C° 0 mm 3 mps 760 mmHg 35%
17:00 +8°C° 0 mm 3 mps 760 mmHg 41%
18:00 +7°C° 0 mm 3 mps 760 mmHg 47%
19:00 +5°C° 0 mm 3 mps 761 mmHg 53%
20:00 +4°C° 0 mm 3 mps 761 mmHg 58%
21:00 +5°C° 0 mm 2 mps 761 mmHg 63%
22:00 +4°C° 0 mm 2 mps 761 mmHg 67%
23:00 +4°C° 0 mm 2 mps 761 mmHg 69%

14 April, Wednesday

Time Temperature Precipitation Wind Pressure Humidity
00:00 +4°C° 0 mm 2 mps 761 mmHg 71%
01:00 +3°C° 0 mm 2 mps 761 mmHg 73%
02:00 +3°C° 0 mm 2 mps 761 mmHg 75%
03:00 +3°C° 0 mm 2 mps 761 mmHg 76%
04:00 +3°C° 0 mm 2 mps 761 mmHg 78%
05:00 +2°C° 0 mm 3 mps 761 mmHg 78%
06:00 +3°C° 0 mm 3 mps 761 mmHg 77%
07:00 +3°C° 0 mm 4 mps 761 mmHg 77%
08:00 +4°C° 0 mm 4 mps 761 mmHg 71%
09:00 +5°C° 0 mm 5 mps 761 mmHg 65%
10:00 +6°C° 0 mm 5 mps 761 mmHg 60%
11:00 +5°C° 0 mm 6 mps 761 mmHg 56%
12:00 +5°C° 0 mm 6 mps 761 mmHg 52%
13:00 +6°C° 0 mm 7 mps 761 mmHg 49%
14:00 +5°C° 0 mm 7 mps 760 mmHg 52%
15:00 +5°C° 0 mm 7 mps 760 mmHg 54%
16:00 +4°C° 0 mm 7 mps 760 mmHg 57%
17:00 +3°C° 0 mm 6 mps 760 mmHg 60%
18:00 +3°C° 0 mm 6 mps 760 mmHg 64%
19:00 +2°C° 0 mm 6 mps 761 mmHg 67%
20:00 +2°C° 0 mm 6 mps 760 mmHg 68%
21:00 +2°C° 0 mm 6 mps 760 mmHg 68%
22:00 +1°C° 0 mm 6 mps 760 mmHg 69%
23:00 0°C° 0 mm 7 mps 760 mmHg 72%

15 April, Thursday

Time Temperature Precipitation Wind Pressure Humidity
00:00 0°C° 0 mm 7 mps 760 mmHg 75%
01:00 0°C° 0 mm 7 mps 759 mmHg 78%
02:00 0°C° 0.2 mm 7 mps 759 mmHg 79%
03:00 0°C° 0.2 mm 7 mps 759 mmHg 80%
04:00 0°C° 0.2 mm 7 mps 759 mmHg 81%
05:00 0°C° 0.2 mm 7 mps 759 mmHg 81%
06:00 0°C° 0.2 mm 7 mps 759 mmHg 82%
07:00 0°C° 0.2 mm 7 mps 759 mmHg 82%
08:00 0°C° 0.3 mm 7 mps 759 mmHg 84%
09:00 0°C° 0.3 mm 7 mps 760 mmHg 86%
10:00 0°C° 0.3 mm 7 mps 760 mmHg 89%
11:00 0°C° 0.2 mm 7 mps 760 mmHg 89%
12:00 0°C° 0.2 mm 7 mps 760 mmHg 89%
13:00 0°C° 0.2 mm 7 mps 760 mmHg 89%
14:00 0°C° 0.1 mm 7 mps 760 mmHg 86%
15:00 0°C° 0.1 mm 7 mps 760 mmHg 84%
16:00 +2°C° 0.1 mm 7 mps 761 mmHg 82%
17:00 +2°C° 0 mm 7 mps 761 mmHg 80%
18:00 +2°C° 0 mm 6 mps 761 mmHg 78%
19:00 +2°C° 0 mm 6 mps 761 mmHg 76%
20:00 +2°C° 0 mm 5 mps 762 mmHg 77%
21:00 +2°C° 0 mm 5 mps 762 mmHg 77%
22:00 +2°C° 0 mm 5 mps 762 mmHg 78%
23:00 +2°C° 0 mm 5 mps 762 mmHg 79%

16 April, Friday

Time Temperature Precipitation Wind Pressure Humidity
00:00 +2°C° 0 mm 5 mps 762 mmHg 80%
01:00 +2°C° 0 mm 5 mps 762 mmHg 81%
02:00 +1°C° 0 mm 5 mps 762 mmHg 83%
03:00 +1°C° 0 mm 5 mps 763 mmHg 85%
04:00 +1°C° 0 mm 5 mps 763 mmHg 87%
05:00 +1°C° 0 mm 5 mps 763 mmHg 85%
06:00 +2°C° 0 mm 5 mps 763 mmHg 82%
07:00 +2°C° 0 mm 5 mps 764 mmHg 80%
08:00 +4°C° 0 mm 6 mps 764 mmHg 70%
09:00 +7°C° 0 mm 6 mps 764 mmHg 61%
10:00 +8°C° 0 mm 7 mps 764 mmHg 51%
11:00 +9°C° 0 mm 6 mps 764 mmHg 48%
12:00 +10°C° 0 mm 6 mps 764 mmHg 45%
13:00 +11°C° 0 mm 6 mps 764 mmHg 43%
14:00 +11°C° 0 mm 6 mps 764 mmHg 44%
15:00 +11°C° 0 mm 6 mps 764 mmHg 46%
16:00 +11°C° 0 mm 6 mps 764 mmHg 48%
17:00 +9°C° 0 mm 5 mps 765 mmHg 55%
18:00 +7°C° 0 mm 5 mps 765 mmHg 61%
19:00 +6°C° 0 mm 4 mps 765 mmHg 68%
20:00 +5°C° 0 mm 4 mps 766 mmHg 73%
21:00 +4°C° 0 mm 4 mps 766 mmHg 77%
22:00 +3°C° 0 mm 3 mps 766 mmHg 82%
23:00 +3°C° 0 mm 3 mps 766 mmHg 83%
Show more